Location: Vista Encantada
(35.1109°N, 106.5681°W)
Time: 08:19:25
(UTC+00:00)

ATLAS CENTAUR R/B - Pass Details

Date: 29 October 2020
Orbit: 479 x 667 km, 64.7° (Epoch: 26 November)

Event Time Altitude Azimuth Distance (km) Brightness Sun altitude
Rises 12:40:21 0° 221° (SW) 2,695 4.5 -9.8°
Reaches altitude 10° 12:42:39 10° 227° (SW) 1,774 3.6 -9.3°
Maximum altitude 12:46:28 47° 302° (WNW) 689 1.4 -8.5°
Drops below altitude 10° 12:50:08 10° 17° (NNE) 1,700 3.9 -7.8°
Sets 12:52:18 0° 23° (NNE) 2,567 4.9 -7.4°
